Regional Weather Roundup
Issued by NWS

Home | Current Version | Previous Version | Graphics & Text | Print | Product List | Glossary On
Versions: 1 2 3 4 5 6 7 8 9 10 11 12 13 14 15 16 17 18 19 20 21 22 23 24 25 26 27 28 29 30 31 32 33 34 35 36 37 38 39 40 41 42 43 44 45 46 47 48 49 50
316
ASUS43 KLSX 290457
RWRMO

WEATHER SUMMARY FOR MISSOURI
NATIONAL WEATHER SERVICE SPRINGFIELD MO
1200 AM CDT FRI JUL 29 2016

NOTE: "FAIR" INDICATES FEW OR NO CLOUDS BELOW 12,000 FEET WITH NO
       SIGNIFICANT WEATHER AND/OR OBSTRUCTIONS TO VISIBILITY.
       CURRENT SKY AND/OR WEATHER CONDITIONS ARE NOT AVAILABLE FOR
       CHILLICOTHE AND FARMINGTON.

MOZ001>031-035>038-043-044-053-054-290600-
...NORTHERN AND WESTERN MISSOURI...

CITY           SKY/WX    TMP DP  RH WIND       PRES   REMARKS
KANSAS CTY INT CLOUDY    77  65  66 NE7       29.98F
LEE`S SUMMIT   CLOUDY    79  67  66 CALM      30.00S
ST JOSEPH      CLOUDY    73  67  81 N7        29.99R

$$
MOZ066>068-077>081-088>096-101>105-290600-
...SOUTHWEST MISSOURI...

CITY           SKY/WX    TMP DP  RH WIND       PRES   REMARKS
SPRINGFIELD    CLEAR     74  70  87 CALM      29.99S
JOPLIN         PTCLDY    77  74  90 CALM      29.98F

$$
MOZ032>034-039>042-045>050-055>058-069>072-290600-
...CENTRAL MISSOURI...

CITY           SKY/WX    TMP DP  RH WIND       PRES   REMARKS
COLUMBIA       NOT AVBL
JEFFERSON CITY CLEAR     72  70  93 NW3       29.96R
ROLLA          CLEAR     68  67  96 CALM      29.96R
SEDALIA        PTCLDY    75  72  90 N3        30.00R

$$
MOZ051-052-059>065-290600-
...EAST CENTRAL MISSOURI...

CITY           SKY/WX    TMP DP  RH WIND       PRES   REMARKS
ST LOUIS INTL  CLOUDY    79  70  74 N6        29.93S

$$
MOZ072>076-082>087-097>100-106>115-290600-
...SOUTH CENTRAL AND SOUTHEAST MISSOURI...

CITY           SKY/WX    TMP DP  RH WIND       PRES   REMARKS
CAPE GIRARDEAU CLOUDY    73  71  93 SW5       29.92S
POPLAR BLUFF   CLOUDY    74  70  87 SW3       29.93R
WEST PLAINS    CLEAR     69  67  93 NW3       29.99F

$$



USA.gov is the U.S. government's official web portal to all federal, state and local government web resources and services.